EXPRESS 80

Last updated on Fri Dec 19 2025 00:02:53 GMT+0000 (Coordinated Universal Time)

1 45986U 20053B 25351.53783815 .00000000 00000+0 00000+0 0 9996 2 45986 0.0229 334.8752 0001706 103.8800 281.2640 1.00273696 19819
UTC large
Height (km)
Speed (km/s)
/
Latitude / Longitude
Inclination (degrees)
Orbital Period (minutes)
Azimuth
Elevation
Range (km)
Doppler Factor

Next 0 passes for location: London (51.5072 / 0.1276)

Sorry there are no passes over London.